Feng Yun 1-1 Rocket - Orbit

View from above orbital plane
View from above orbital plane
View from above satellite
View from above satellite

Ground track
Ground track

The orbit data is extracted from the following two-line orbital elements,

1 19468U 88080B   13142.98853822  .00000322  00000-0  22852-3 0  8604
2 19468 098.9709 109.8264 0071903 188.4438 213.6845 14.03371398264828
Epoch (UTC): 22 May 2013 23:43:29
Eccentricity: 0.0071903
inclination: 98.9709°
perigee height: 830 km
apogee height: 934 km
right ascension of ascending node: 109.8264°
argument of perigee: 188.4438°
revolutions per day: 14.03371398
mean anomaly at epoch: 213.6845°
orbit number at epoch: 26482

The dashed part of the orbit path shows where the satellite is in the earth's shadow,  

Developed and maintained by Chris Peat, Heavens-Above GmbH. Please read the updated FAQ before sending e-mail. Imprint. DLR